Year,Month,Day,Hour,Minute,Value (Times are PST for temperature in C)
2013,05,01,00,00,7.50
2013,05,01,00,01,7.50
2013,05,01,00,02,7.50
2013,05,01,00,03,7.50
2013,05,01,00,04,7.50
2013,05,01,00,05,7.40
2013,05,01,00,06,7.40
2013,05,01,00,07,7.40
2013,05,01,00,08,7.40
2013,05,01,00,09,7.40
2013,05,01,00,10,7.40
2013,05,01,00,11,7.40
2013,05,01,00,12,7.40
2013,05,01,00,13,7.40
2013,05,01,00,14,7.40
2013,05,01,00,15,7.40
2013,05,01,00,16,7.40
2013,05,01,00,17,7.40
2013,05,01,00,18,7.40
2013,05,01,00,19,7.40
2013,05,01,00,20,7.40
2013,05,01,00,21,7.40
2013,05,01,00,22,7.40
2013,05,01,00,23,7.40
2013,05,01,00,24,7.40
2013,05,01,00,25,7.40
2013,05,01,00,26,7.40
2013,05,01,00,27,7.40
2013,05,01,00,28,7.30
2013,05,01,00,29,7.30
2013,05,01,00,30,7.30
2013,05,01,00,31,7.30
2013,05,01,00,32,7.30
2013,05,01,00,33,7.30
2013,05,01,00,34,7.30
2013,05,01,00,35,7.20
2013,05,01,00,36,7.20
2013,05,01,00,37,7.20
2013,05,01,00,38,7.10
2013,05,01,00,39,7.10
2013,05,01,00,40,7.10
2013,05,01,00,41,7.10
2013,05,01,00,42,7.10
2013,05,01,00,43,7.10
2013,05,01,00,44,7.10
2013,05,01,00,45,7.10
2013,05,01,00,46,7.10
2013,05,01,00,47,7.10
2013,05,01,00,48,7.10
2013,05,01,00,49,7.10
2013,05,01,00,50,7.10
2013,05,01,00,51,7.10
2013,05,01,00,52,7.10
2013,05,01,00,53,7.10
2013,05,01,00,54,7.10
2013,05,01,00,55,7.00
2013,05,01,00,56,7.00
2013,05,01,00,57,7.00
2013,05,01,00,58,7.00
2013,05,01,00,59,6.90
2013,05,01,01,00,6.90
2013,05,01,01,01,6.90
2013,05,01,01,02,6.90
2013,05,01,01,03,6.90
2013,05,01,01,04,6.80
2013,05,01,01,05,6.80
2013,05,01,01,06,6.80
2013,05,01,01,07,6.80
2013,05,01,01,08,6.80
2013,05,01,01,09,6.80
2013,05,01,01,10,6.80
2013,05,01,01,11,6.70
2013,05,01,01,12,6.70
2013,05,01,01,13,6.70
2013,05,01,01,14,6.70
2013,05,01,01,15,6.70
2013,05,01,01,16,6.70
2013,05,01,01,17,6.70
2013,05,01,01,18,6.70
2013,05,01,01,19,6.70
2013,05,01,01,20,6.70
2013,05,01,01,21,6.70
2013,05,01,01,22,6.70
2013,05,01,01,23,6.70
2013,05,01,01,24,6.70
2013,05,01,01,25,6.70
2013,05,01,01,26,6.60
2013,05,01,01,27,6.60
2013,05,01,01,28,6.60
2013,05,01,01,29,6.60
2013,05,01,01,30,6.60
2013,05,01,01,31,6.60
2013,05,01,01,32,6.60
2013,05,01,01,33,6.60
2013,05,01,01,34,6.60
2013,05,01,01,35,6.50
2013,05,01,01,36,6.50
2013,05,01,01,37,6.50
2013,05,01,01,38,6.50
2013,05,01,01,39,6.50
2013,05,01,01,40,6.50
2013,05,01,01,41,6.50
2013,05,01,01,42,6.40
2013,05,01,01,43,6.40
2013,05,01,01,44,6.40
2013,05,01,01,45,6.40
2013,05,01,01,46,6.40
2013,05,01,01,47,6.40
2013,05,01,01,48,6.40
2013,05,01,01,49,6.40
2013,05,01,01,50,6.30
2013,05,01,01,51,6.30
2013,05,01,01,52,6.30
2013,05,01,01,53,6.30
2013,05,01,01,54,6.30
2013,05,01,01,55,6.30
2013,05,01,01,56,6.30
2013,05,01,01,57,6.30
2013,05,01,01,58,6.30
2013,05,01,01,59,6.30
2013,05,01,02,00,6.20
2013,05,01,02,01,6.20
2013,05,01,02,02,6.20
2013,05,01,02,03,6.20
2013,05,01,02,04,6.20
2013,05,01,02,05,6.20
2013,05,01,02,06,6.20
2013,05,01,02,07,6.20
2013,05,01,02,08,6.20
2013,05,01,02,09,6.20
2013,05,01,02,10,6.20
2013,05,01,02,11,6.20
2013,05,01,02,12,6.20
2013,05,01,02,13,6.20
2013,05,01,02,14,6.20
2013,05,01,02,15,6.20
2013,05,01,02,16,6.20
2013,05,01,02,17,6.10
2013,05,01,02,18,6.10
2013,05,01,02,19,6.10
2013,05,01,02,20,6.10
2013,05,01,02,21,6.10
2013,05,01,02,22,6.00
2013,05,01,02,23,6.00
2013,05,01,02,24,6.00
2013,05,01,02,25,5.90
2013,05,01,02,26,5.90
2013,05,01,02,27,5.90
2013,05,01,02,28,5.90
2013,05,01,02,29,5.90
2013,05,01,02,30,5.90
2013,05,01,02,31,5.90
2013,05,01,02,32,5.90
2013,05,01,02,33,5.90
2013,05,01,02,34,5.90
2013,05,01,02,35,5.90
2013,05,01,02,36,5.90
2013,05,01,02,37,5.90
2013,05,01,02,38,5.90
2013,05,01,02,39,5.90
2013,05,01,02,40,5.90
2013,05,01,02,41,5.90
2013,05,01,02,42,5.80
2013,05,01,02,43,5.80
2013,05,01,02,44,5.80
2013,05,01,02,45,5.80
2013,05,01,02,46,5.80
2013,05,01,02,47,5.70
2013,05,01,02,48,5.70
2013,05,01,02,49,5.70
2013,05,01,02,50,5.70
2013,05,01,02,51,5.70
2013,05,01,02,52,5.70
2013,05,01,02,53,5.70
2013,05,01,02,54,5.70
2013,05,01,02,55,5.70
2013,05,01,02,56,5.70
2013,05,01,02,57,5.60
2013,05,01,02,58,5.60
2013,05,01,02,59,5.60
2013,05,01,03,00,5.60
2013,05,01,03,01,5.70
2013,05,01,03,02,5.70
2013,05,01,03,03,5.70
2013,05,01,03,04,5.70
2013,05,01,03,05,5.70
2013,05,01,03,06,5.70
2013,05,01,03,07,5.70
2013,05,01,03,08,5.70
2013,05,01,03,09,5.80
2013,05,01,03,10,5.80
2013,05,01,03,11,5.80
2013,05,01,03,12,5.80
2013,05,01,03,13,5.80
2013,05,01,03,14,5.80
2013,05,01,03,15,5.70
2013,05,01,03,16,5.70
2013,05,01,03,17,5.70
2013,05,01,03,18,5.70
2013,05,01,03,19,5.70
2013,05,01,03,20,5.60
2013,05,01,03,21,5.60
2013,05,01,03,22,5.60
2013,05,01,03,23,5.60
2013,05,01,03,24,5.60
2013,05,01,03,25,5.60
2013,05,01,03,26,5.60
2013,05,01,03,27,5.60
2013,05,01,03,28,5.60
2013,05,01,03,29,5.60
2013,05,01,03,30,5.60
2013,05,01,03,31,5.60
2013,05,01,03,32,5.60
2013,05,01,03,33,5.60
2013,05,01,03,34,5.60
2013,05,01,03,35,5.50
2013,05,01,03,36,5.50
2013,05,01,03,37,5.50
2013,05,01,03,38,5.40
2013,05,01,03,39,5.40
2013,05,01,03,40,5.40
2013,05,01,03,41,5.30
2013,05,01,03,42,5.30
2013,05,01,03,43,5.40
2013,05,01,03,44,5.40
2013,05,01,03,45,5.40
2013,05,01,03,46,5.40
2013,05,01,03,47,5.30
2013,05,01,03,48,5.30
2013,05,01,03,49,5.40
2013,05,01,03,50,5.40
2013,05,01,03,51,5.40
2013,05,01,03,52,5.40
2013,05,01,03,53,5.50
2013,05,01,03,54,5.50
2013,05,01,03,55,5.50
2013,05,01,03,56,5.50
2013,05,01,03,57,5.50
2013,05,01,03,58,5.50
2013,05,01,03,59,5.50
2013,05,01,04,00,5.50
2013,05,01,04,01,5.40
2013,05,01,04,02,5.50
2013,05,01,04,03,5.40
2013,05,01,04,04,5.40
2013,05,01,04,05,5.40
2013,05,01,04,06,5.40
2013,05,01,04,07,5.40
2013,05,01,04,08,5.40
2013,05,01,04,09,5.30
2013,05,01,04,10,5.30
2013,05,01,04,11,5.30
2013,05,01,04,12,5.30
2013,05,01,04,13,5.30
2013,05,01,04,14,5.30
2013,05,01,04,15,5.30
2013,05,01,04,16,5.30
2013,05,01,04,17,5.20
2013,05,01,04,18,5.20
2013,05,01,04,19,5.20
2013,05,01,04,20,5.20
2013,05,01,04,21,5.20
2013,05,01,04,22,5.20
2013,05,01,04,23,5.20
2013,05,01,04,24,5.10
2013,05,01,04,25,5.10
2013,05,01,04,26,5.10
2013,05,01,04,27,5.10
2013,05,01,04,28,5.10
2013,05,01,04,29,5.10
2013,05,01,04,30,5.00
2013,05,01,04,31,5.00
2013,05,01,04,32,5.00
2013,05,01,04,33,4.90
2013,05,01,04,34,4.80
2013,05,01,04,35,4.80
2013,05,01,04,36,4.70
2013,05,01,04,37,4.60
2013,05,01,04,38,4.50
2013,05,01,04,39,4.30
2013,05,01,04,40,4.20
2013,05,01,04,41,4.10
2013,05,01,04,42,4.00
2013,05,01,04,43,3.90
2013,05,01,04,44,3.80
2013,05,01,04,45,3.80
2013,05,01,04,46,3.70
2013,05,01,04,47,3.70
2013,05,01,04,48,3.70
2013,05,01,04,49,3.70
2013,05,01,04,50,3.70
2013,05,01,04,51,3.70
2013,05,01,04,52,3.80
2013,05,01,04,53,3.80
2013,05,01,04,54,3.70
2013,05,01,04,55,3.80
2013,05,01,04,56,3.80
2013,05,01,04,57,3.80
2013,05,01,04,58,3.80
2013,05,01,04,59,3.80
2013,05,01,05,00,3.80
2013,05,01,05,01,3.80
2013,05,01,05,02,3.80
2013,05,01,05,03,3.80
2013,05,01,05,04,3.80
2013,05,01,05,05,3.80
2013,05,01,05,06,3.80
2013,05,01,05,07,3.80
2013,05,01,05,08,3.80
2013,05,01,05,09,3.80
2013,05,01,05,10,3.80
2013,05,01,05,11,3.80
2013,05,01,05,12,3.80
2013,05,01,05,13,3.90
2013,05,01,05,14,3.90
2013,05,01,05,15,4.00
2013,05,01,05,16,4.10
2013,05,01,05,17,4.10
2013,05,01,05,18,4.20
2013,05,01,05,19,4.30
2013,05,01,05,20,4.40
2013,05,01,05,21,4.50
2013,05,01,05,22,4.50
2013,05,01,05,23,4.60
2013,05,01,05,24,4.60
2013,05,01,05,25,4.50
2013,05,01,05,26,4.40
2013,05,01,05,27,4.30
2013,05,01,05,28,4.30
2013,05,01,05,29,4.20
2013,05,01,05,30,4.00
2013,05,01,05,31,4.00
2013,05,01,05,32,3.90
2013,05,01,05,33,3.80
2013,05,01,05,34,3.70
2013,05,01,05,35,3.60
2013,05,01,05,36,3.50
2013,05,01,05,37,3.50
2013,05,01,05,38,3.40
2013,05,01,05,39,3.30
2013,05,01,05,40,3.20
2013,05,01,05,41,3.20
2013,05,01,05,42,3.10
2013,05,01,05,43,3.10
2013,05,01,05,44,3.00
2013,05,01,05,45,3.00
2013,05,01,05,46,2.90
2013,05,01,05,47,2.90
2013,05,01,05,48,2.90
2013,05,01,05,49,2.80
2013,05,01,05,50,2.80
2013,05,01,05,51,2.80
2013,05,01,05,52,2.80
2013,05,01,05,53,2.80
2013,05,01,05,54,2.70
2013,05,01,05,55,2.70
2013,05,01,05,56,2.70
2013,05,01,05,57,2.70
2013,05,01,05,58,2.70
2013,05,01,05,59,2.60
2013,05,01,06,00,2.60
2013,05,01,06,01,2.50
2013,05,01,06,02,2.50
2013,05,01,06,03,2.50
2013,05,01,06,04,2.40
2013,05,01,06,05,2.40
2013,05,01,06,06,2.40
2013,05,01,06,07,2.30
2013,05,01,06,08,2.30
2013,05,01,06,09,2.30
2013,05,01,06,10,2.30
2013,05,01,06,11,2.30
2013,05,01,06,12,2.30
2013,05,01,06,13,2.30
2013,05,01,06,14,2.30
2013,05,01,06,15,2.30
2013,05,01,06,16,2.30
2013,05,01,06,17,2.40
2013,05,01,06,18,2.40
2013,05,01,06,19,2.50
2013,05,01,06,20,2.50
2013,05,01,06,21,2.60
2013,05,01,06,22,2.70
2013,05,01,06,23,2.70
2013,05,01,06,24,2.80
2013,05,01,06,25,2.90
2013,05,01,06,26,2.90
2013,05,01,06,27,3.00
2013,05,01,06,28,3.00
2013,05,01,06,29,3.00
2013,05,01,06,30,3.00
2013,05,01,06,31,3.00
2013,05,01,06,32,3.00
2013,05,01,06,33,3.00
2013,05,01,06,34,3.00
2013,05,01,06,35,3.00
2013,05,01,06,36,3.00
2013,05,01,06,37,3.00
2013,05,01,06,38,3.00
2013,05,01,06,39,3.00
2013,05,01,06,40,3.00
2013,05,01,06,41,3.10
2013,05,01,06,42,3.10
2013,05,01,06,43,3.20
2013,05,01,06,44,3.20
2013,05,01,06,45,3.30
2013,05,01,06,46,3.30
2013,05,01,06,47,3.50
2013,05,01,06,48,3.50
2013,05,01,06,49,3.60
2013,05,01,06,50,3.60
2013,05,01,06,51,3.70
2013,05,01,06,52,3.70
2013,05,01,06,53,3.70
2013,05,01,06,54,3.70
2013,05,01,06,55,3.70
2013,05,01,06,56,3.80
2013,05,01,06,57,3.80
2013,05,01,06,58,3.90
2013,05,01,06,59,3.90
2013,05,01,07,00,4.00
2013,05,01,07,01,4.10
2013,05,01,07,02,4.20
2013,05,01,07,03,4.20
2013,05,01,07,04,4.30
2013,05,01,07,05,4.30
2013,05,01,07,06,4.40
2013,05,01,07,07,4.50
2013,05,01,07,08,4.50
2013,05,01,07,09,4.50
2013,05,01,07,10,4.50
2013,05,01,07,11,4.40
2013,05,01,07,12,4.40
2013,05,01,07,13,4.40
2013,05,01,07,14,4.40
2013,05,01,07,15,4.40
2013,05,01,07,16,4.40
2013,05,01,07,17,4.40
2013,05,01,07,18,4.50
2013,05,01,07,19,4.50
2013,05,01,07,20,4.60
2013,05,01,07,21,4.60
2013,05,01,07,22,4.70
2013,05,01,07,23,4.80
2013,05,01,07,24,4.90
2013,05,01,07,25,5.00
2013,05,01,07,26,5.10
2013,05,01,07,27,5.20
2013,05,01,07,28,5.30
2013,05,01,07,29,5.30
2013,05,01,07,30,5.30
2013,05,01,07,31,5.30
2013,05,01,07,32,5.30
2013,05,01,07,33,5.30
2013,05,01,07,34,5.30
2013,05,01,07,35,5.30
2013,05,01,07,36,5.30
2013,05,01,07,37,5.30
2013,05,01,07,38,5.30
2013,05,01,07,39,5.30
2013,05,01,07,40,5.30
2013,05,01,07,41,5.40
2013,05,01,07,42,5.40
2013,05,01,07,43,5.50
2013,05,01,07,44,5.60
2013,05,01,07,45,5.60
2013,05,01,07,46,5.70
2013,05,01,07,47,5.70
2013,05,01,07,48,5.80
2013,05,01,07,49,5.80
2013,05,01,07,50,5.90
2013,05,01,07,51,6.00
2013,05,01,07,52,6.00
2013,05,01,07,53,6.10
2013,05,01,07,54,6.20
2013,05,01,07,55,6.20
2013,05,01,07,56,6.30
2013,05,01,07,57,6.30
2013,05,01,07,58,6.30
2013,05,01,07,59,6.40
2013,05,01,08,00,6.50
2013,05,01,08,01,6.60
2013,05,01,08,02,6.60
2013,05,01,08,03,6.70
2013,05,01,08,04,6.70
2013,05,01,08,05,6.80
2013,05,01,08,06,6.90
2013,05,01,08,07,7.00
2013,05,01,08,08,7.20
2013,05,01,08,09,7.20
2013,05,01,08,10,7.30
2013,05,01,08,11,7.50
2013,05,01,08,12,7.60
2013,05,01,08,13,7.70
2013,05,01,08,14,7.70
2013,05,01,08,15,7.80
2013,05,01,08,16,7.80
2013,05,01,08,17,7.80
2013,05,01,08,18,7.80
2013,05,01,08,19,7.80
2013,05,01,08,20,7.80
2013,05,01,08,21,7.90
2013,05,01,08,22,7.90
2013,05,01,08,23,7.90
2013,05,01,08,24,8.10
2013,05,01,08,25,8.10
2013,05,01,08,26,8.20
2013,05,01,08,27,8.30
2013,05,01,08,28,8.30
2013,05,01,08,29,8.40
2013,05,01,08,30,8.40
2013,05,01,08,31,8.50
2013,05,01,08,32,8.60
2013,05,01,08,33,8.60
2013,05,01,08,34,8.50
2013,05,01,08,35,8.60
2013,05,01,08,36,8.50
2013,05,01,08,37,8.50
2013,05,01,08,38,8.40
2013,05,01,08,39,8.40
2013,05,01,08,40,8.40
2013,05,01,08,41,8.40
2013,05,01,08,42,8.40
2013,05,01,08,43,8.50
2013,05,01,08,44,8.50
2013,05,01,08,45,8.60
2013,05,01,08,46,8.60
2013,05,01,08,47,8.50
2013,05,01,08,48,8.50
2013,05,01,08,49,8.50
2013,05,01,08,50,8.50
2013,05,01,08,51,8.60
2013,05,01,08,52,8.60
2013,05,01,08,53,8.60
2013,05,01,08,54,8.50
2013,05,01,08,55,8.50
2013,05,01,08,56,8.50
2013,05,01,08,57,8.50
2013,05,01,08,58,8.50
2013,05,01,08,59,8.50
2013,05,01,09,00,8.60
2013,05,01,09,01,8.60
2013,05,01,09,02,8.70
2013,05,01,09,03,8.70
2013,05,01,09,04,8.70
2013,05,01,09,05,8.70
2013,05,01,09,06,8.70
2013,05,01,09,07,8.70
2013,05,01,09,08,8.80
2013,05,01,09,09,8.80
2013,05,01,09,10,8.80
2013,05,01,09,11,8.80
2013,05,01,09,12,8.80
2013,05,01,09,13,8.80
2013,05,01,09,14,8.80
2013,05,01,09,15,8.80
2013,05,01,09,16,8.70
2013,05,01,09,17,8.80
2013,05,01,09,18,8.80
2013,05,01,09,19,8.80
2013,05,01,09,20,8.80
2013,05,01,09,21,8.80
2013,05,01,09,22,8.80
2013,05,01,09,23,8.90
2013,05,01,09,24,9.00
2013,05,01,09,25,9.10
2013,05,01,09,26,9.10
2013,05,01,09,27,9.20
2013,05,01,09,28,9.10
2013,05,01,09,29,9.10
2013,05,01,09,30,9.10
2013,05,01,09,31,9.10
2013,05,01,09,32,9.10
2013,05,01,09,33,9.10
2013,05,01,09,34,9.10
2013,05,01,09,35,9.10
2013,05,01,09,36,9.10
2013,05,01,09,37,9.10
2013,05,01,09,38,9.10
2013,05,01,09,39,9.10
2013,05,01,09,40,9.10
2013,05,01,09,41,9.10
2013,05,01,09,42,9.10
2013,05,01,09,43,9.00
2013,05,01,09,44,8.90
2013,05,01,09,45,8.90
2013,05,01,09,46,8.80
2013,05,01,09,47,8.80
2013,05,01,09,48,8.80
2013,05,01,09,49,8.70
2013,05,01,09,50,8.70
2013,05,01,09,51,8.70
2013,05,01,09,52,8.60
2013,05,01,09,53,8.70
2013,05,01,09,54,8.70
2013,05,01,09,55,8.80
2013,05,01,09,56,8.80
2013,05,01,09,57,8.80
2013,05,01,09,58,8.90
2013,05,01,09,59,8.90
2013,05,01,10,00,8.80
2013,05,01,10,01,8.80
2013,05,01,10,02,8.70
2013,05,01,10,03,8.70
2013,05,01,10,04,8.80
2013,05,01,10,05,8.80
2013,05,01,10,06,8.90
2013,05,01,10,07,8.90
2013,05,01,10,08,8.90
2013,05,01,10,09,8.90
2013,05,01,10,10,8.80
2013,05,01,10,11,8.80
2013,05,01,10,12,8.90
2013,05,01,10,13,8.90
2013,05,01,10,14,9.00
2013,05,01,10,15,9.10
2013,05,01,10,16,9.10
2013,05,01,10,17,9.00
2013,05,01,10,18,9.00
2013,05,01,10,19,9.00
2013,05,01,10,20,9.00
2013,05,01,10,21,9.00
2013,05,01,10,22,8.90
2013,05,01,10,23,8.90
2013,05,01,10,24,8.90
2013,05,01,10,25,8.90
2013,05,01,10,26,8.90
2013,05,01,10,27,8.90
2013,05,01,10,28,9.00
2013,05,01,10,29,9.10
2013,05,01,10,30,9.10
2013,05,01,10,31,9.00
2013,05,01,10,32,9.00
2013,05,01,10,33,9.10
2013,05,01,10,34,9.10
2013,05,01,10,35,9.20
2013,05,01,10,36,9.20
2013,05,01,10,37,9.20
2013,05,01,10,38,9.20
2013,05,01,10,39,9.20
2013,05,01,10,40,9.20
2013,05,01,10,41,9.30
2013,05,01,10,42,9.30
2013,05,01,10,43,9.40
2013,05,01,10,44,9.40
2013,05,01,10,45,9.40
2013,05,01,10,46,9.40
2013,05,01,10,47,9.40
2013,05,01,10,48,9.40
2013,05,01,10,49,9.50
2013,05,01,10,50,9.70
2013,05,01,10,51,9.80
2013,05,01,10,52,9.80
2013,05,01,10,53,9.70
2013,05,01,10,54,9.70
2013,05,01,10,55,9.70
2013,05,01,10,56,9.70
2013,05,01,10,57,9.70
2013,05,01,10,58,9.80
2013,05,01,10,59,9.80
2013,05,01,11,00,9.90
2013,05,01,11,01,9.90
2013,05,01,11,02,10.00
2013,05,01,11,03,10.00
2013,05,01,11,04,10.00
2013,05,01,11,05,9.90
2013,05,01,11,06,9.80
2013,05,01,11,07,9.80
2013,05,01,11,08,9.70
2013,05,01,11,09,9.70
2013,05,01,11,10,9.70
2013,05,01,11,11,9.60
2013,05,01,11,12,9.60
2013,05,01,11,13,9.50
2013,05,01,11,14,9.50
2013,05,01,11,15,9.60
2013,05,01,11,16,9.60
2013,05,01,11,17,9.80
2013,05,01,11,18,9.80
2013,05,01,11,19,9.90
2013,05,01,11,20,10.00
2013,05,01,11,21,10.00
2013,05,01,11,22,10.10
2013,05,01,11,23,10.10
2013,05,01,11,24,10.10
2013,05,01,11,25,10.10
2013,05,01,11,26,10.00
2013,05,01,11,27,9.90
2013,05,01,11,28,9.80
2013,05,01,11,29,9.80
2013,05,01,11,30,9.80
2013,05,01,11,31,9.70
2013,05,01,11,32,9.60
2013,05,01,11,33,9.60
2013,05,01,11,34,9.60
2013,05,01,11,35,9.60
2013,05,01,11,36,9.50
2013,05,01,11,37,9.50
2013,05,01,11,38,9.40
2013,05,01,11,39,9.50
2013,05,01,11,40,9.60
2013,05,01,11,41,9.70
2013,05,01,11,42,9.70
2013,05,01,11,43,9.70
2013,05,01,11,44,9.80
2013,05,01,11,45,9.90
2013,05,01,11,46,10.00
2013,05,01,11,47,10.10
2013,05,01,11,48,10.00
2013,05,01,11,49,10.00
2013,05,01,11,50,9.90
2013,05,01,11,51,9.90
2013,05,01,11,52,9.90
2013,05,01,11,53,9.90
2013,05,01,11,54,10.10
2013,05,01,11,55,10.10
2013,05,01,11,56,10.20
2013,05,01,11,57,10.20
2013,05,01,11,58,10.20
2013,05,01,11,59,10.20
2013,05,01,12,00,10.20
2013,05,01,12,01,10.20
2013,05,01,12,02,10.20
2013,05,01,12,03,10.30
2013,05,01,12,04,10.40
2013,05,01,12,05,10.50
2013,05,01,12,06,10.60
2013,05,01,12,07,10.60
2013,05,01,12,08,10.60
2013,05,01,12,09,10.50
2013,05,01,12,10,10.50
2013,05,01,12,11,10.40
2013,05,01,12,12,10.40
2013,05,01,12,13,10.40
2013,05,01,12,14,10.50
2013,05,01,12,15,10.60
2013,05,01,12,16,10.80
2013,05,01,12,17,10.90
2013,05,01,12,18,10.90
2013,05,01,12,19,10.80
2013,05,01,12,20,10.70
2013,05,01,12,21,10.60
2013,05,01,12,22,10.60
2013,05,01,12,23,10.60
2013,05,01,12,24,10.70
2013,05,01,12,25,10.60
2013,05,01,12,26,10.60
2013,05,01,12,27,10.60
2013,05,01,12,28,10.70
2013,05,01,12,29,10.70
2013,05,01,12,30,10.60
2013,05,01,12,31,10.60
2013,05,01,12,32,10.50
2013,05,01,12,33,10.60
2013,05,01,12,34,10.60
2013,05,01,12,35,10.70
2013,05,01,12,36,10.70
2013,05,01,12,37,10.80
2013,05,01,12,38,10.80
2013,05,01,12,39,10.80
2013,05,01,12,40,10.90
2013,05,01,12,41,10.90
2013,05,01,12,42,10.80
2013,05,01,12,43,10.90
2013,05,01,12,44,10.90
2013,05,01,12,45,11.00
2013,05,01,12,46,11.00
2013,05,01,12,47,11.10
2013,05,01,12,48,11.20
2013,05,01,12,49,11.30
2013,05,01,12,50,11.50
2013,05,01,12,51,11.50
2013,05,01,12,52,11.40
2013,05,01,12,53,11.30
2013,05,01,12,54,11.30
2013,05,01,12,55,11.30
2013,05,01,12,56,11.30
2013,05,01,12,57,11.30
2013,05,01,12,58,11.30
2013,05,01,12,59,11.30
2013,05,01,13,00,11.30
2013,05,01,13,01,11.30
2013,05,01,13,02,11.30
2013,05,01,13,03,11.30
2013,05,01,13,04,11.30
2013,05,01,13,05,11.30
2013,05,01,13,06,11.30
2013,05,01,13,07,11.20
2013,05,01,13,08,11.20
2013,05,01,13,09,11.30
2013,05,01,13,10,11.30
2013,05,01,13,11,11.40
2013,05,01,13,12,11.40
2013,05,01,13,13,11.50
2013,05,01,13,14,11.60
2013,05,01,13,15,11.70
2013,05,01,13,16,11.80
2013,05,01,13,17,11.90
2013,05,01,13,18,11.90
2013,05,01,13,19,11.90
2013,05,01,13,20,11.70
2013,05,01,13,21,11.60
2013,05,01,13,22,11.60
2013,05,01,13,23,11.60
2013,05,01,13,24,11.70
2013,05,01,13,25,11.70
2013,05,01,13,26,11.70
2013,05,01,13,27,11.80
2013,05,01,13,28,11.80
2013,05,01,13,29,11.90
2013,05,01,13,30,12.00
2013,05,01,13,31,12.10
2013,05,01,13,32,12.20
2013,05,01,13,33,12.20
2013,05,01,13,34,12.20
2013,05,01,13,35,12.30
2013,05,01,13,36,12.30
2013,05,01,13,37,12.20
2013,05,01,13,38,12.10
2013,05,01,13,39,12.10
2013,05,01,13,40,12.00
2013,05,01,13,41,12.00
2013,05,01,13,42,12.00
2013,05,01,13,43,12.00
2013,05,01,13,44,11.90
2013,05,01,13,45,11.80
2013,05,01,13,46,11.70
2013,05,01,13,47,11.60
2013,05,01,13,48,11.60
2013,05,01,13,49,11.60
2013,05,01,13,50,11.70
2013,05,01,13,51,11.70
2013,05,01,13,52,11.60
2013,05,01,13,53,11.50
2013,05,01,13,54,11.50
2013,05,01,13,55,11.50
2013,05,01,13,56,11.50
2013,05,01,13,57,11.60
2013,05,01,13,58,11.70
2013,05,01,13,59,11.70
2013,05,01,14,00,11.70
2013,05,01,14,01,11.80
2013,05,01,14,02,11.80
2013,05,01,14,03,11.70
2013,05,01,14,04,11.70
2013,05,01,14,05,11.70
2013,05,01,14,06,11.80
2013,05,01,14,07,11.80
2013,05,01,14,08,11.90
2013,05,01,14,09,11.90
2013,05,01,14,10,11.90
2013,05,01,14,11,11.90
2013,05,01,14,12,11.90
2013,05,01,14,13,11.80
2013,05,01,14,14,11.90
2013,05,01,14,15,11.90
2013,05,01,14,16,11.90
2013,05,01,14,17,12.10
2013,05,01,14,18,12.20
2013,05,01,14,19,12.20
2013,05,01,14,20,12.40
2013,05,01,14,21,12.50
2013,05,01,14,22,12.50
2013,05,01,14,23,12.50
2013,05,01,14,24,12.60
2013,05,01,14,25,12.60
2013,05,01,14,26,12.60
2013,05,01,14,27,12.60
2013,05,01,14,28,12.60
2013,05,01,14,29,12.70
2013,05,01,14,30,12.80
2013,05,01,14,31,12.80
2013,05,01,14,32,12.80
2013,05,01,14,33,12.80
2013,05,01,14,34,12.70
2013,05,01,14,35,12.60
2013,05,01,14,36,12.60
2013,05,01,14,37,12.70
2013,05,01,14,38,12.60
2013,05,01,14,39,12.40
2013,05,01,14,40,12.30
2013,05,01,14,41,12.20
2013,05,01,14,42,12.30
2013,05,01,14,43,12.40
2013,05,01,14,44,12.40
2013,05,01,14,45,12.50
2013,05,01,14,46,12.50
2013,05,01,14,47,12.70
2013,05,01,14,48,12.80
2013,05,01,14,49,12.90
2013,05,01,14,50,13.00
2013,05,01,14,51,13.00
2013,05,01,14,52,12.90
2013,05,01,14,53,12.90
2013,05,01,14,54,12.90
2013,05,01,14,55,13.00
2013,05,01,14,56,13.10
2013,05,01,14,57,13.10
2013,05,01,14,58,13.20
2013,05,01,14,59,13.10
2013,05,01,15,00,13.20
2013,05,01,15,01,13.20
2013,05,01,15,02,13.30
2013,05,01,15,03,13.40
2013,05,01,15,04,13.60
2013,05,01,15,05,13.60
2013,05,01,15,06,13.60
2013,05,01,15,07,13.60
2013,05,01,15,08,13.70
2013,05,01,15,09,13.60
2013,05,01,15,10,13.50
2013,05,01,15,11,13.40
2013,05,01,15,12,13.30
2013,05,01,15,13,13.30
2013,05,01,15,14,13.30
2013,05,01,15,15,13.50
2013,05,01,15,16,13.50
2013,05,01,15,17,13.50
2013,05,01,15,18,13.50
2013,05,01,15,19,13.50
2013,05,01,15,20,13.40
2013,05,01,15,21,13.40
2013,05,01,15,22,13.40
2013,05,01,15,23,13.40
2013,05,01,15,24,13.40
2013,05,01,15,25,13.40
2013,05,01,15,26,13.40
2013,05,01,15,27,13.50
2013,05,01,15,28,13.50
2013,05,01,15,29,13.60
2013,05,01,15,30,13.60
2013,05,01,15,31,13.60
2013,05,01,15,32,13.70
2013,05,01,15,33,13.70
2013,05,01,15,34,13.60
2013,05,01,15,35,13.70
2013,05,01,15,36,13.70
2013,05,01,15,37,13.70
2013,05,01,15,38,13.70
2013,05,01,15,39,13.80
2013,05,01,15,40,13.80
2013,05,01,15,41,13.90
2013,05,01,15,42,14.00
2013,05,01,15,43,14.00
2013,05,01,15,44,14.00
2013,05,01,15,45,14.00
2013,05,01,15,46,13.90
2013,05,01,15,47,13.90
2013,05,01,15,48,13.90
2013,05,01,15,49,14.00
2013,05,01,15,50,14.00
2013,05,01,15,51,14.10
2013,05,01,15,52,14.00
2013,05,01,15,53,13.90
2013,05,01,15,54,13.90
2013,05,01,15,55,13.80
2013,05,01,15,56,13.80
2013,05,01,15,57,13.80
2013,05,01,15,58,13.80
2013,05,01,15,59,13.80
2013,05,01,16,00,13.80
2013,05,01,16,01,13.70
2013,05,01,16,02,13.70
2013,05,01,16,03,13.70
2013,05,01,16,04,13.80
2013,05,01,16,05,13.80
2013,05,01,16,06,13.90
2013,05,01,16,07,13.90
2013,05,01,16,08,13.90
2013,05,01,16,09,13.90
2013,05,01,16,10,13.90
2013,05,01,16,11,13.90
2013,05,01,16,12,13.80
2013,05,01,16,13,13.80
2013,05,01,16,14,13.80
2013,05,01,16,15,13.90
2013,05,01,16,16,14.00
2013,05,01,16,17,14.00
2013,05,01,16,18,14.00
2013,05,01,16,19,13.90
2013,05,01,16,20,13.80
2013,05,01,16,21,13.80
2013,05,01,16,22,13.80
2013,05,01,16,23,13.80
2013,05,01,16,24,13.80
2013,05,01,16,25,13.80
2013,05,01,16,26,13.80
2013,05,01,16,27,13.80
2013,05,01,16,28,13.70
2013,05,01,16,29,13.80
2013,05,01,16,30,13.80
2013,05,01,16,31,13.80
2013,05,01,16,32,13.80
2013,05,01,16,33,13.70
2013,05,01,16,34,13.80
2013,05,01,16,35,13.80
2013,05,01,16,36,13.90
2013,05,01,16,37,13.90
2013,05,01,16,38,13.90
2013,05,01,16,39,14.00
2013,05,01,16,40,14.00
2013,05,01,16,41,14.00
2013,05,01,16,42,14.10
2013,05,01,16,43,14.10
2013,05,01,16,44,14.00
2013,05,01,16,45,14.00
2013,05,01,16,46,13.90
2013,05,01,16,47,13.80
2013,05,01,16,48,13.70
2013,05,01,16,49,13.60
2013,05,01,16,50,13.60
2013,05,01,16,51,13.70
2013,05,01,16,52,13.70
2013,05,01,16,53,13.80
2013,05,01,16,54,13.80
2013,05,01,16,55,13.80
2013,05,01,16,56,13.80
2013,05,01,16,57,13.70
2013,05,01,16,58,13.60
2013,05,01,16,59,13.60
2013,05,01,17,00,13.60
2013,05,01,17,01,13.60
2013,05,01,17,02,13.70
2013,05,01,17,03,13.80
2013,05,01,17,04,13.90
2013,05,01,17,05,13.90
2013,05,01,17,06,14.00
2013,05,01,17,07,14.00
2013,05,01,17,08,14.00
2013,05,01,17,09,14.00
2013,05,01,17,10,14.00
2013,05,01,17,11,14.00
2013,05,01,17,12,14.00
2013,05,01,17,13,13.90
2013,05,01,17,14,13.90
2013,05,01,17,15,13.90
2013,05,01,17,16,13.80
2013,05,01,17,17,13.70
2013,05,01,17,18,13.70
2013,05,01,17,19,13.60
2013,05,01,17,20,13.70
2013,05,01,17,21,13.70
2013,05,01,17,22,13.80
2013,05,01,17,23,13.80
2013,05,01,17,24,13.80
2013,05,01,17,25,13.90
2013,05,01,17,26,13.90
2013,05,01,17,27,13.90
2013,05,01,17,28,14.00
2013,05,01,17,29,14.00
2013,05,01,17,30,14.10
2013,05,01,17,31,14.10
2013,05,01,17,32,14.00
2013,05,01,17,33,14.00
2013,05,01,17,34,14.00
2013,05,01,17,35,14.00
2013,05,01,17,36,14.00
2013,05,01,17,37,14.10
2013,05,01,17,38,14.10
2013,05,01,17,39,14.20
2013,05,01,17,40,14.20
2013,05,01,17,41,14.30
2013,05,01,17,42,14.40
2013,05,01,17,43,14.50
2013,05,01,17,44,14.60
2013,05,01,17,45,14.60
2013,05,01,17,46,14.60
2013,05,01,17,47,14.50
2013,05,01,17,48,14.40
2013,05,01,17,49,14.50